GAOFEN-13 02

Last updated on Tue Sep 22 2026 00:03:16 GMT+0000 (Coordinated Universal Time)

1 55912U 23036A 26264.24002966 -.00000221 00000+0 00000+0 0 9999 2 55912 1.0107 12.9741 0003225 305.7253 276.0091 1.00275588 13054
UTC large
Height (km)
Speed (km/s)
/
Latitude / Longitude
Inclination (degrees)
Orbital Period (minutes)
Azimuth
Elevation
Range (km)
Doppler Factor

Next 0 passes for location: London (51.5072 / 0.1276)

No passes found over London.
GAOFEN-13 02